Flag for Ecuador Weather past 2 weeks in Quito, Ecuador

Now
57 °F

Partly sunny.


Feels Like: 53 °F
Forecast: 49 / 67 °F
Wind: 17 mph from South

Location: Latacunga Airport

Current Time: Dec 22, 2014 at 10:47:56 AM

Latest Report: Dec 22, 2014 at 10:00 AM


Visibility: N/A

Pressure: 30.42 "Hg

Humidity: 82%

Dew point: 52 °F

Location of QuitoLocation

Historic Weather in Quito — Graph

°F

Quito temperature yesterday

Maximum temperature yesterday: 70 °F (at 2:00 PM)
Minimum temperature yesterday: 50 °F (at 5:00 AM)
Average temperature yesterday: 56 °F

Past Weeks' High & Low Weather Summary

 TemperatureHumidityPressure
High75 °F (Dec 7, 1:00 PM)100% (Dec 7, 8:00 PM)30.48 "Hg (Dec 7, 8:00 PM)
Low36 °F (Dec 15, 5:00 AM)24% (Dec 15, 2:00 PM)30.21 "Hg (Dec 8, 4:00 PM)
Average57 °F82%30.38 "Hg
* Reported Dec 7 10:00 AM — Dec 22 10:00 AM, Quito, Weather by CustomWeather, © 2014

Note: Actual official high and low records may vary slightly from our data, if they occured in-between our weather recording intervals... More about our weather records

Advertising

Quito weather history for previous 24 hours

 ConditionsComfort  
Time TempWeatherWind HumidityBarometerVisibility
10:00 AM
Dec 22
57 °FPartly sunny.17 mph82%30.42 "HgN/A
9:00 AM55 °FPartly sunny.10 mph88%30.42 "HgN/A
8:00 AM54 °FBroken clouds.9 mph94%30.39 "HgN/A
7:00 AM54 °FBroken clouds.7 mph94%30.39 "HgN/A
6:00 AM52 °FPassing clouds.5 mph100%30.36 "HgN/A
5:00 AM50 °FPassing clouds.9 mph100%30.33 "HgN/A
4:00 AM50 °FPartly cloudy.5 mph94%30.33 "HgN/A
3:00 AM50 °FPartly cloudy.9 mph94%30.33 "HgN/A
1:00 AM50 °FPassing clouds.7 mph100%30.36 "HgN/A
12:00 AM52 °FPassing clouds.3 mph94%30.42 "HgN/A
11:00 PM
Dec 21
54 °FPassing clouds.5 mph94%30.42 "HgN/A
10:00 PM54 °FPassing clouds.6 mph100%30.39 "HgN/A
9:00 PM55 °FPassing clouds.No wind94%30.39 "HgN/A
8:00 PM55 °FPassing clouds.5 mph94%30.39 "HgN/A
7:00 PM55 °FScattered showers. Passing clouds.6 mph100%30.36 "HgN/A
6:00 PM55 °FScattered showers. Broken clouds.5 mph94%30.36 "HgN/A
5:00 PM54 °FScattered showers. Partly sunny.6 mph94%30.33 "HgN/A
4:00 PM52 °FThunderstorms. Partly sunny.2 mph100%30.27 "HgN/A
3:00 PM68 °FThunderstorms. Scattered clouds.5 mph64%30.27 "HgN/A
2:00 PM70 °FScattered clouds.7 mph60%30.27 "HgN/A
1:00 PM68 °FScattered clouds.12 mph60%30.33 "HgN/A
12:00 PM64 °FScattered clouds.9 mph73%30.39 "HgN/A
11:00 AM63 °FPartly sunny.6 mph73%30.42 "HgN/A
10:00 AM61 °FPartly sunny.7 mph77%30.42 "HgN/A
Weather by CustomWeather, © 2014

See weather overviewHow to use our weather pages